Terminal Aerodrome Forecast
Issued by NWS

Home | Current Version | Previous Version | Text Only | Print | Product List | Glossary On
Versions: 1 2 3 4 5 6 7 8 9 10 11 12 13 14 15 16 17 18 19 20 21 22 23 24 25 26 27
852
FTUS46 KMTR 110028 CCA
TAFSFO
TAF COR
KSFO 110028Z 1100/1206 32004KT P6SM FEW160 BKN200
     FM110100 29009KT P6SM SCT200
     FM110400 28006KT P6SM SCT200
     FM111000 26004KT 6SM BR SCT200
     FM111500 24003KT 6SM HZ SCT200
     FM111700 25005KT P6SM SCT200
     FM112100 29008KT P6SM SCT200
     FM120400 26006KT P6SM FEW200=

USA.gov is the U.S. government's official web portal to all federal, state and local government web resources and services.